Clovis, NM

5:48 PM MDT on June 28, 2017 (GMT -0600)
Clovis Municipal

Weather History for KCVN - October, 2011

Change the Weather History Date:

Saturday, October 1, 2011

  Actual Average Record
Temperature  
Mean Temperature 66 °F -  
Max Temperature 84 °F 79 °F 92 °F (1977)
Min Temperature 48 °F 50 °F 33 °F (1965)
Cooling Degree Days 1    
Growing Degree Days 16 (Base 50)    
Moisture  
Dew Point 33 °F    
Average Humidity 32    
Maximum Humidity 50    
Minimum Humidity 18    
Precipitation  
Precipitation 0.00 in - - ()
Sea Level Pressure  
Sea Level Pressure 30.24 in    
Wind  
Wind Speed 11 mph (SSW)    
Max Wind Speed 18 mph    
Max Gust Speed 23 mph    
Visibility 10 miles    
Events      
Averages and records for this station are not official NWS values.
T = Trace of Precipitation, MM = Missing Value Source: NWS Daily Summary

Daily Weather History Graph

Daily Weather History Graph

Search for Another Location

Airport or City:

Trip Planner

Search our weather history database for the weather conditions in past years. The results will help you decide how hot, cold, wet, or windy it might be!

Date:

Astronomy

Oct. 01, 2011 Rise Set
Actual Time 6:46 AM MDT 6:36 PM MDT
Civil Twilight 6:21 AM MDT 7:01 PM MDT
Nautical Twilight 5:52 AM MDT 7:30 PM MDT
Astronomical Twilight 5:23 AM MDT 8:00 PM MDT
Moon 11:40 AM MDT (10/1) 9:51 PM MDT (10/1)
Length of Visible Light 12h 40m
Length of Day
11h 49m
Waxing Crescent, 25% of the Moon is Illuminated
Oct 1
Waxing Crescent
Oct 3
First Quarter
Oct 11
Full
Oct 19
Last Quarter
Oct 26
New

Hourly Weather History & Observations

Time (MDT) Temp. Dew Point Humidity Pressure Visibility Wind Dir Wind Speed Gust Speed Precip Events Conditions
12:15 AM 55.4 °F 30.2 °F 38% 30.26 in 10.0 mi SSW 9.2 mph - N/A   Clear
12:35 AM 53.6 °F 30.2 °F 41% 30.26 in 10.0 mi SW 9.2 mph - N/A   Clear
12:55 AM 53.6 °F 30.2 °F 41% 30.26 in 10.0 mi SW 9.2 mph - N/A   Clear
1:15 AM 53.6 °F 30.2 °F 41% 30.26 in 10.0 mi SW 10.4 mph - N/A   Clear
1:35 AM 53.6 °F 30.2 °F 41% 30.26 in 10.0 mi SW 11.5 mph - N/A   Clear
1:55 AM 53.6 °F 30.2 °F 41% 30.25 in 10.0 mi SW 11.5 mph - N/A   Clear
2:15 AM 53.6 °F 30.2 °F 41% 30.25 in 10.0 mi SW 12.7 mph - N/A   Clear
2:35 AM 53.6 °F 30.2 °F 41% 30.24 in 10.0 mi SW 13.8 mph - N/A   Clear
2:55 AM 53.6 °F 30.2 °F 41% 30.24 in 10.0 mi SW 12.7 mph - N/A   Clear
3:15 AM 51.8 °F 30.2 °F 44% 30.24 in 10.0 mi SW 10.4 mph - N/A   Clear
3:35 AM 51.8 °F 30.2 °F 44% 30.24 in 10.0 mi SW 11.5 mph - N/A   Clear
3:55 AM 51.8 °F 30.2 °F 44% 30.24 in 10.0 mi SW 10.4 mph - N/A   Clear
4:15 AM 51.8 °F 30.2 °F 44% 30.24 in 10.0 mi SW 9.2 mph - N/A   Clear
4:35 AM 51.8 °F 30.2 °F 44% 30.24 in 10.0 mi SW 10.4 mph - N/A   Clear
4:55 AM 50.0 °F 30.2 °F 47% 30.24 in 10.0 mi SW 9.2 mph - N/A   Clear
5:15 AM 51.8 °F 30.2 °F 44% 30.24 in 10.0 mi SW 10.4 mph - N/A   Clear
5:35 AM 51.8 °F 30.2 °F 44% 30.25 in 10.0 mi SW 10.4 mph - N/A   Clear
5:55 AM 51.8 °F 30.2 °F 44% 30.25 in 10.0 mi SSW 9.2 mph - N/A   Clear
6:15 AM 51.8 °F 30.2 °F 44% 30.26 in 10.0 mi SW 6.9 mph - N/A   Clear
6:35 AM 50.0 °F 30.2 °F 47% 30.27 in 10.0 mi Calm Calm - N/A   Clear
6:55 AM 50.0 °F 30.2 °F 47% 30.28 in 10.0 mi South 3.5 mph - N/A   Clear
7:15 AM 48.2 °F 30.2 °F 50% 30.28 in 10.0 mi SSW 6.9 mph - N/A   Clear
7:35 AM 51.8 °F 30.2 °F 44% 30.29 in 10.0 mi South 5.8 mph - N/A   Clear
8:15 AM 57.2 °F 33.8 °F 41% 30.30 in 10.0 mi SSW 5.8 mph - N/A   Clear
8:35 AM 60.8 °F 32.0 °F 34% 30.30 in 10.0 mi SSW 9.2 mph - N/A   Clear
9:15 AM 66.2 °F 33.8 °F 30% 30.30 in 10.0 mi SW 15.0 mph - N/A   Clear
9:35 AM 68.0 °F 35.6 °F 30% 30.30 in 10.0 mi SW 15.0 mph - N/A   Clear
10:15 AM 71.6 °F 35.6 °F 27% 30.30 in 10.0 mi SSW 17.3 mph - N/A   Clear
10:35 AM 73.4 °F 37.4 °F 27% 30.29 in 10.0 mi SW 18.4 mph - N/A   Clear
10:55 AM 73.4 °F 37.4 °F 27% 30.29 in 10.0 mi SSW 16.1 mph 21.9 mph N/A   Clear
11:15 AM 75.2 °F 37.4 °F 25% 30.28 in 10.0 mi SSW 17.3 mph 21.9 mph N/A   Clear
11:35 AM 77.0 °F 37.4 °F 24% 30.28 in 10.0 mi SW 15.0 mph 20.7 mph N/A   Clear
11:55 AM 78.8 °F 37.4 °F 23% 30.27 in 10.0 mi SSW 12.7 mph - N/A   Clear
12:15 PM 78.8 °F 35.6 °F 21% 30.27 in 10.0 mi SW 11.5 mph 19.6 mph N/A   Clear
12:35 PM 80.6 °F 35.6 °F 20% 30.26 in 10.0 mi SSW 12.7 mph 20.7 mph N/A   Clear
12:55 PM 82.4 °F 35.6 °F 19% 30.25 in 10.0 mi SW 11.5 mph - N/A   Clear
1:15 PM 80.6 °F 35.6 °F 20% 30.24 in 10.0 mi SW 18.4 mph 23.0 mph N/A   Clear
1:35 PM 82.4 °F 35.6 °F 19% 30.23 in 10.0 mi SW 16.1 mph 20.7 mph N/A   Clear
1:55 PM 82.4 °F 37.4 °F 20% 30.23 in 10.0 mi SSW 13.8 mph - N/A   Clear
2:15 PM 84.2 °F 37.4 °F 19% 30.22 in 10.0 mi SSW 11.5 mph 19.6 mph N/A   Clear
2:35 PM 84.2 °F 37.4 °F 19% 30.22 in 10.0 mi SSW 16.1 mph - N/A   Clear
2:55 PM 84.2 °F 35.6 °F 18% 30.21 in 10.0 mi South 13.8 mph 20.7 mph N/A   Clear
3:15 PM 84.2 °F 35.6 °F 18% 30.21 in 10.0 mi SSW 12.7 mph - N/A   Clear
3:35 PM 84.2 °F 35.6 °F 18% 30.21 in 10.0 mi South 13.8 mph 18.4 mph N/A   Clear
3:55 PM 84.2 °F 35.6 °F 18% 30.20 in 10.0 mi SW 16.1 mph 20.7 mph N/A   Clear
4:15 PM 84.2 °F 35.6 °F 18% 30.20 in 10.0 mi SSW 15.0 mph 19.6 mph N/A   Clear
4:35 PM 82.4 °F 35.6 °F 19% 30.20 in 10.0 mi South 15.0 mph 20.7 mph N/A   Clear
4:55 PM 82.4 °F 35.6 °F 19% 30.20 in 10.0 mi South 18.4 mph - N/A   Clear
5:15 PM 82.4 °F 35.6 °F 19% 30.20 in 10.0 mi South 17.3 mph - N/A   Clear
5:35 PM 80.6 °F 33.8 °F 18% 30.20 in 10.0 mi South 17.3 mph - N/A   Scattered Clouds
6:15 PM 78.8 °F 33.8 °F 20% 30.20 in 10.0 mi South 13.8 mph - N/A   Partly Cloudy
6:35 PM 75.2 °F 33.8 °F 22% 30.20 in 10.0 mi South 10.4 mph - N/A   Clear
6:55 PM 71.6 °F 33.8 °F 25% 30.21 in 10.0 mi South 10.4 mph - N/A   Clear
7:15 PM 69.8 °F 33.8 °F 27% 30.21 in 10.0 mi South 9.2 mph - N/A   Clear
7:35 PM 66.2 °F 33.8 °F 30% 30.21 in 10.0 mi South 9.2 mph - N/A   Clear
7:55 PM 66.2 °F 35.6 °F 32% 30.22 in 10.0 mi South 10.4 mph - N/A   Clear
8:15 PM 64.4 °F 35.6 °F 34% 30.22 in 10.0 mi South 10.4 mph - N/A   Clear
8:35 PM 64.4 °F 35.6 °F 34% 30.23 in 10.0 mi South 9.2 mph - N/A   Clear
8:55 PM 64.4 °F 35.6 °F 34% 30.23 in 10.0 mi South 11.5 mph - N/A   Clear
9:15 PM 64.4 °F 35.6 °F 34% 30.23 in 10.0 mi South 10.4 mph - N/A   Clear
9:35 PM 62.6 °F 35.6 °F 37% 30.23 in 10.0 mi South 11.5 mph - N/A   Clear
9:55 PM 62.6 °F 35.6 °F 37% 30.24 in 10.0 mi South 10.4 mph - N/A   Clear
10:15 PM 62.6 °F 35.6 °F 37% 30.24 in 10.0 mi South 10.4 mph - N/A   Clear
10:35 PM 60.8 °F 35.6 °F 39% 30.24 in 10.0 mi South 11.5 mph - N/A   Clear
10:55 PM 60.8 °F 35.6 °F 39% 30.24 in 10.0 mi South 10.4 mph - N/A   Clear
11:15 PM 60.8 °F 35.6 °F 39% 30.25 in 10.0 mi South 9.2 mph - N/A   Clear
11:55 PM 55.4 °F 35.6 °F 47% 30.25 in 10.0 mi SSW 6.9 mph - N/A   Clear